owner,sensor,date,latitude,longitude,vertical_datum,direction_of_sea_water_velocity,sea_water_speed,upward_sea_water_velocity,qcFlag 
TABS,ioos:station:wmo:42046:1,2004-08-01T00:00:00Z,27.8903,-94.0367,2.0,263.4704679,41.86150618,-99999.0,'11111222,11111222,99999999' 
TABS,ioos:station:wmo:42046:1,2004-08-01T00:30:00Z,27.8903,-94.0367,2.0,268.3606461,41.60702104,-99999.0,'11111222,11111222,99999999' 
TABS,ioos:station:wmo:42046:1,2004-08-01T01:00:00Z,27.8903,-94.0367,2.0,272.4501509,41.87827241,-99999.0,'11111222,11111222,99999999' 
TABS,ioos:station:wmo:42046:1,2004-08-01T01:30:00Z,27.8903,-94.0367,2.0,273.1731761,40.47203602,-99999.0,'11111222,11111222,99999999' 
TABS,ioos:station:wmo:42046:1,2004-08-01T02:00:00Z,27.8903,-94.0367,2.0,279.2257208,44.91089957,-99999.0,'11111222,11111222,99999999' 
TABS,ioos:station:wmo:42046:1,2004-08-01T02:30:00Z,27.8903,-94.0367,2.0,286.0802963,45.63542593,-99999.0,'11111222,11111222,99999999' 
TABS,ioos:station:wmo:42046:1,2004-08-01T03:00:00Z,27.8903,-94.0367,2.0,287.7035372,46.79603936,-99999.0,'11111222,11111222,99999999' 
TABS,ioos:station:wmo:42046:1,2004-08-01T03:30:00Z,27.8903,-94.0367,2.0,290.1385838,47.02487214,-99999.0,'11111222,11111222,99999999' 
TABS,ioos:station:wmo:42046:1,2004-08-01T04:30:00Z,27.8903,-94.0367,2.0,299.4642362,50.58197307,-99999.0,'11111222,11111222,99999999' 
TABS,ioos:station:wmo:42046:1,2004-08-01T05:00:00Z,27.8903,-94.0367,2.0,303.1491803,47.85889468,-99999.0,'11111222,11111222,99999999' 
TABS,ioos:station:wmo:42046:1,2004-08-01T05:30:00Z,27.8903,-94.0367,2.0,306.302209,53.86464703,-99999.0,'11111222,11111222,99999999' 
TABS,ioos:station:wmo:42046:1,2004-08-01T06:00:00Z,27.8903,-94.0367,2.0,311.4454055,54.28297155,-99999.0,'11111222,11111222,99999999' 
TABS,ioos:station:wmo:42046:1,2004-08-01T06:30:00Z,27.8903,-94.0367,2.0,314.364585,52.25840794,-99999.0,'11111222,11111222,99999999' 
TABS,ioos:station:wmo:42046:1,2004-08-01T07:00:00Z,27.8903,-94.0367,2.0,319.0393591,49.59236433,-99999.0,'11111222,11111222,99999999' 
TABS,ioos:station:wmo:42046:1,2004-08-01T07:30:00Z,27.8903,-94.0367,2.0,322.335862,47.01852082,-99999.0,'11111222,11111222,99999999' 
TABS,ioos:station:wmo:42046:1,2004-08-01T08:00:00Z,27.8903,-94.0367,2.0,327.1112945,47.01543683,-99999.0,'11111222,11111222,99999999' 
TABS,ioos:station:wmo:42046:1,2004-08-01T09:30:00Z,27.8903,-94.0367,2.0,338.1660997,35.73335976,-99999.0,'11111222,11111222,99999999' 
TABS,ioos:station:wmo:42046:1,2004-08-01T10:00:00Z,27.8903,-94.0367,2.0,339.7990384,32.31802129,-99999.0,'11111222,11111222,99999999' 
TABS,ioos:station:wmo:42046:1,2004-08-01T11:00:00Z,27.8903,-94.0367,2.0,336.862212,22.36937639,-99999.0,'11111222,11111222,99999999' 
TABS,ioos:station:wmo:42046:1,2004-08-01T11:30:00Z,27.8903,-94.0367,2.0,339.7966425,21.31125524,-99999.0,'11111222,11111222,99999999' 
TABS,ioos:station:wmo:42046:1,2004-08-01T12:00:00Z,27.8903,-94.0367,2.0,344.174293,21.74422452,-99999.0,'11111222,11111222,99999999' 
TABS,ioos:station:wmo:42046:1,2004-08-01T12:30:00Z,27.8903,-94.0367,2.0,340.4584527,20.2992857,-99999.0,'11111222,11111222,99999999' 
TABS,ioos:station:wmo:42046:1,2004-08-01T13:00:00Z,27.8903,-94.0367,2.0,344.9935623,16.18187257,-99999.0,'11111222,11111222,99999999' 
TABS,ioos:station:wmo:42046:1,2004-08-01T13:30:00Z,27.8903,-94.0367,2.0,344.9837159,14.74347313,-99999.0,'11111222,11111222,99999999' 
TABS,ioos:station:wmo:42046:1,2004-08-01T14:00:00Z,27.8903,-94.0367,2.0,335.035784,10.56730808,-99999.0,'11111222,11111222,99999999' 
TABS,ioos:station:wmo:42046:1,2004-08-01T14:30:00Z,27.8903,-94.0367,2.0,322.2693863,10.11514211,-99999.0,'11111222,11111222,99999999' 
TABS,ioos:station:wmo:42046:1,2004-08-01T15:00:00Z,27.8903,-94.0367,2.0,317.4118369,8.570653417,-99999.0,'11133222,11111222,99999999' 
TABS,ioos:station:wmo:42046:1,2004-08-01T15:30:00Z,27.8903,-94.0367,2.0,312.4503726,6.993139495,-99999.0,'11133222,11111222,99999999' 
TABS,ioos:station:wmo:42046:1,2004-08-01T16:00:00Z,27.8903,-94.0367,2.0,289.1331142,12.20413455,-99999.0,'11111222,11111222,99999999' 
TABS,ioos:station:wmo:42046:1,2004-08-01T16:30:00Z,27.8903,-94.0367,2.0,278.2606125,11.83275538,-99999.0,'11111222,11111222,99999999' 
TABS,ioos:station:wmo:42046:1,2004-08-01T17:00:00Z,27.8903,-94.0367,2.0,276.7665799,13.07103668,-99999.0,'11111222,11111222,99999999' 
TABS,ioos:station:wmo:42046:1,2004-08-01T17:30:00Z,27.8903,-94.0367,2.0,276.3923338,15.89883329,-99999.0,'11111222,11111222,99999999' 
TABS,ioos:station:wmo:42046:1,2004-08-01T18:00:00Z,27.8903,-94.0367,2.0,269.8571415,16.09004972,-99999.0,'11111222,11111222,99999999' 
TABS,ioos:station:wmo:42046:1,2004-08-01T19:00:00Z,27.8903,-94.0367,2.0,265.4409588,23.90562486,-99999.0,'11111222,11111222,99999999' 
TABS,ioos:station:wmo:42046:1,2004-08-01T19:30:00Z,27.8903,-94.0367,2.0,267.7259554,26.97123282,-99999.0,'11111222,11111222,99999999' 
TABS,ioos:station:wmo:42046:1,2004-08-01T20:00:00Z,27.8903,-94.0367,2.0,269.4916523,28.20110813,-99999.0,'11111222,11111222,99999999' 
TABS,ioos:station:wmo:42046:1,2004-08-01T20:30:00Z,27.8903,-94.0367,2.0,269.6745822,29.97048214,-99999.0,'11111222,11111222,99999999' 
TABS,ioos:station:wmo:42046:1,2004-08-01T21:00:00Z,27.8903,-94.0367,2.0,266.2642728,28.55065148,-99999.0,'11111222,11111222,99999999' 
TABS,ioos:station:wmo:42046:1,2004-08-01T21:30:00Z,27.8903,-94.0367,2.0,271.9116006,28.18567899,-99999.0,'11111222,11111222,99999999' 
TABS,ioos:station:wmo:42046:1,2004-08-01T22:00:00Z,27.8903,-94.0367,2.0,269.5785643,31.30084504,-99999.0,'11111222,11111222,99999999' 
TABS,ioos:station:wmo:42046:1,2004-08-01T22:30:00Z,27.8903,-94.0367,2.0,269.2836563,30.41237413,-99999.0,'11111222,11111222,99999999' 
TABS,ioos:station:wmo:42046:1,2004-08-01T23:00:00Z,27.8903,-94.0367,2.0,270.1724324,36.64016512,-99999.0,'11111222,11111222,99999999' 
TABS,ioos:station:wmo:42046:1,2004-08-01T23:30:00Z,27.8903,-94.0367,2.0,272.8070723,39.00679043,-99999.0,'11111222,11111222,99999999' 
TABS,ioos:station:wmo:42046:1,2004-08-02T00:00:00Z,27.8903,-94.0367,2.0,273.803084,40.10830338,-99999.0,'11111222,11111222,99999999' 
TABS,ioos:station:wmo:42046:1,2004-08-02T00:30:00Z,27.8903,-94.0367,2.0,280.4700082,41.9890581,-99999.0,'11111222,11111222,99999999' 
TABS,ioos:station:wmo:42046:1,2004-08-02T01:00:00Z,27.8903,-94.0367,2.0,280.8464991,43.36465957,-99999.0,'11111222,11111222,99999999' 
TABS,ioos:station:wmo:42046:1,2004-08-02T01:30:00Z,27.8903,-94.0367,2.0,283.8904088,40.86496054,-99999.0,'11111222,11111222,99999999' 
TABS,ioos:station:wmo:42046:1,2004-08-02T02:00:00Z,27.8903,-94.0367,2.0,288.3665902,47.44684816,-99999.0,'11111222,11111222,99999999' 
TABS,ioos:station:wmo:42046:1,2004-08-02T02:30:00Z,27.8903,-94.0367,2.0,290.6601431,51.07449951,-99999.0,'11111222,11111222,99999999' 
TABS,ioos:station:wmo:42046:1,2004-08-02T03:00:00Z,27.8903,-94.0367,2.0,293.7363114,52.64306412,-99999.0,'11111222,11111222,99999999' 
TABS,ioos:station:wmo:42046:1,2004-08-02T03:30:00Z,27.8903,-94.0367,2.0,299.0814235,52.56696776,-99999.0,'11111222,11111222,99999999' 
TABS,ioos:station:wmo:42046:1,2004-08-02T04:00:00Z,27.8903,-94.0367,2.0,302.5509284,53.13691937,-99999.0,'11111222,11111222,99999999' 
TABS,ioos:station:wmo:42046:1,2004-08-02T04:30:00Z,27.8903,-94.0367,2.0,307.8362856,52.78750326,-99999.0,'11111222,11111222,99999999' 
TABS,ioos:station:wmo:42046:1,2004-08-02T05:00:00Z,27.8903,-94.0367,2.0,309.7171955,43.00507877,-99999.0,'11111222,11111222,99999999' 
TABS,ioos:station:wmo:42046:1,2004-08-02T05:30:00Z,27.8903,-94.0367,2.0,315.475899,45.15032337,-99999.0,'11111222,11111222,99999999' 
TABS,ioos:station:wmo:42046:1,2004-08-02T06:00:00Z,27.8903,-94.0367,2.0,315.6411436,49.94607592,-99999.0,'11111222,11111222,99999999' 
TABS,ioos:station:wmo:42046:1,2004-08-02T06:30:00Z,27.8903,-94.0367,2.0,318.3770755,50.78065084,-99999.0,'11111222,11111222,99999999' 
TABS,ioos:station:wmo:42046:1,2004-08-02T07:00:00Z,27.8903,-94.0367,2.0,319.7211773,50.34710121,-99999.0,'11111222,11111222,99999999' 
TABS,ioos:station:wmo:42046:1,2004-08-02T07:30:00Z,27.8903,-94.0367,2.0,323.1196408,42.60600075,-99999.0,'11111222,11111222,99999999' 
TABS,ioos:station:wmo:42046:1,2004-08-02T08:00:00Z,27.8903,-94.0367,2.0,325.0277963,36.061772,-99999.0,'11111222,11111222,99999999' 
TABS,ioos:station:wmo:42046:1,2004-08-02T08:30:00Z,27.8903,-94.0367,2.0,333.4825601,32.47666239,-99999.0,'11111222,11111222,99999999' 
TABS,ioos:station:wmo:42046:1,2004-08-02T09:00:00Z,27.8903,-94.0367,2.0,332.6643728,33.90633127,-99999.0,'11111222,11111222,99999999' 
TABS,ioos:station:wmo:42046:1,2004-08-02T09:30:00Z,27.8903,-94.0367,2.0,336.9913942,26.17214168,-99999.0,'11111222,11111222,99999999' 
TABS,ioos:station:wmo:42046:1,2004-08-02T10:00:00Z,27.8903,-94.0367,2.0,337.9653161,29.61308157,-99999.0,'11111222,11111222,99999999' 
TABS,ioos:station:wmo:42046:1,2004-08-02T10:30:00Z,27.8903,-94.0367,2.0,343.0646333,26.46783897,-99999.0,'11111222,11111222,99999999' 
TABS,ioos:station:wmo:42046:1,2004-08-02T11:00:00Z,27.8903,-94.0367,2.0,343.9542359,22.68375851,-99999.0,'11111222,11111222,99999999' 
TABS,ioos:station:wmo:42046:1,2004-08-02T11:30:00Z,27.8903,-94.0367,2.0,350.0795924,20.14116432,-99999.0,'11111222,11111222,99999999' 
TABS,ioos:station:wmo:42046:1,2004-08-02T12:00:00Z,27.8903,-94.0367,2.0,342.2601672,19.03514907,-99999.0,'11111222,11111222,99999999' 
TABS,ioos:station:wmo:42046:1,2004-08-02T12:30:00Z,27.8903,-94.0367,2.0,342.9207672,16.3092673,-99999.0,'11111222,11111222,99999999' 
TABS,ioos:station:wmo:42046:1,2004-08-02T13:00:00Z,27.8903,-94.0367,2.0,343.8494561,15.71002864,-99999.0,'11111222,11111222,99999999' 
TABS,ioos:station:wmo:42046:1,2004-08-02T14:30:00Z,27.8903,-94.0367,2.0,331.7986482,10.17826115,-99999.0,'11111222,11111222,99999999' 
TABS,ioos:station:wmo:42046:1,2004-08-02T15:00:00Z,27.8903,-94.0367,2.0,314.0396556,9.278545145,-99999.0,'11133222,11111222,99999999' 
TABS,ioos:station:wmo:42046:1,2004-08-02T16:00:00Z,27.8903,-94.0367,2.0,319.8172197,10.10488991,-99999.0,'11111222,11111222,99999999' 
TABS,ioos:station:wmo:42046:1,2004-08-02T16:30:00Z,27.8903,-94.0367,2.0,314.0869842,9.7593135,-99999.0,'11133222,11111222,99999999' 
TABS,ioos:station:wmo:42046:1,2004-08-02T17:00:00Z,27.8903,-94.0367,2.0,308.556857,10.39650422,-99999.0,'11111222,11111222,99999999' 
TABS,ioos:station:wmo:42046:1,2004-08-02T18:30:00Z,27.8903,-94.0367,2.0,294.4336589,17.79352691,-99999.0,'11111222,11111222,99999999' 
TABS,ioos:station:wmo:42046:1,2004-08-02T19:00:00Z,27.8903,-94.0367,2.0,287.8004723,19.69271185,-99999.0,'11111222,11111222,99999999' 
TABS,ioos:station:wmo:42046:1,2004-08-02T19:30:00Z,27.8903,-94.0367,2.0,286.7645656,20.28198462,-99999.0,'11111222,11111222,99999999' 
TABS,ioos:station:wmo:42046:1,2004-08-02T20:00:00Z,27.8903,-94.0367,2.0,288.8488916,22.78164173,-99999.0,'11111222,11111222,99999999' 
TABS,ioos:station:wmo:42046:1,2004-08-02T20:30:00Z,27.8903,-94.0367,2.0,286.0199418,22.28539656,-99999.0,'11111222,11111222,99999999' 
TABS,ioos:station:wmo:42046:1,2004-08-02T21:00:00Z,27.8903,-94.0367,2.0,283.7073499,23.63306159,-99999.0,'11111222,11111222,99999999' 
TABS,ioos:station:wmo:42046:1,2004-08-02T21:30:00Z,27.8903,-94.0367,2.0,276.7334879,24.47882759,-99999.0,'11111222,11111222,99999999' 
TABS,ioos:station:wmo:42046:1,2004-08-02T22:00:00Z,27.8903,-94.0367,2.0,274.1644444,26.02870915,-99999.0,'11111222,11111222,99999999' 
TABS,ioos:station:wmo:42046:1,2004-08-02T22:30:00Z,27.8903,-94.0367,2.0,276.0782629,29.1840453,-99999.0,'11111222,11111222,99999999' 
TABS,ioos:station:wmo:42046:1,2004-08-02T23:00:00Z,27.8903,-94.0367,2.0,281.0413353,28.82350603,-99999.0,'11111222,11111222,99999999' 
TABS,ioos:station:wmo:42046:1,2004-08-03T00:00:00Z,27.8903,-94.0367,2.0,281.5813129,30.6846737,-99999.0,'11111222,11111222,99999999' 
TABS,ioos:station:wmo:42046:1,2004-08-03T00:30:00Z,27.8903,-94.0367,2.0,283.3328654,31.3961797,-99999.0,'11111222,11111222,99999999' 
TABS,ioos:station:wmo:42046:1,2004-08-03T01:00:00Z,27.8903,-94.0367,2.0,282.1568095,35.04585568,-99999.0,'11111222,11111222,99999999' 
TABS,ioos:station:wmo:42046:1,2004-08-03T01:30:00Z,27.8903,-94.0367,2.0,280.4836364,27.86511977,-99999.0,'11111222,11111222,99999999' 
TABS,ioos:station:wmo:42046:1,2004-08-03T02:00:00Z,27.8903,-94.0367,2.0,285.1649853,37.19519996,-99999.0,'11111222,11111222,99999999' 
TABS,ioos:station:wmo:42046:1,2004-08-03T03:00:00Z,27.8903,-94.0367,2.0,288.8440153,41.67355516,-99999.0,'11111222,11111222,99999999' 
TABS,ioos:station:wmo:42046:1,2004-08-03T04:00:00Z,27.8903,-94.0367,2.0,298.3912112,50.39077793,-99999.0,'11111222,11111222,99999999' 
TABS,ioos:station:wmo:42046:1,2004-08-03T05:00:00Z,27.8903,-94.0367,2.0,301.3683532,52.50388367,-99999.0,'11111222,11111222,99999999' 
TABS,ioos:station:wmo:42046:1,2004-08-03T05:30:00Z,27.8903,-94.0367,2.0,304.2303969,48.85184234,-99999.0,'11111222,11111222,99999999' 
TABS,ioos:station:wmo:42046:1,2004-08-03T06:00:00Z,27.8903,-94.0367,2.0,3.479438124,28.3422388,-99999.0,'11111222,11111222,99999999' 
TABS,ioos:station:wmo:42046:1,2004-08-03T06:30:00Z,27.8903,-94.0367,2.0,310.3010646,47.55723394,-99999.0,'11111222,11111222,99999999' 
TABS,ioos:station:wmo:42046:1,2004-08-03T07:00:00Z,27.8903,-94.0367,2.0,313.1600544,46.24034818,-99999.0,'11111222,11111222,99999999' 
TABS,ioos:station:wmo:42046:1,2004-08-03T07:30:00Z,27.8903,-94.0367,2.0,317.4750137,45.03520512,-99999.0,'11111222,11111222,99999999' 
TABS,ioos:station:wmo:42046:1,2004-08-03T08:00:00Z,27.8903,-94.0367,2.0,317.7063292,41.78710926,-99999.0,'11111222,11111222,99999999' 
TABS,ioos:station:wmo:42046:1,2004-08-03T08:30:00Z,27.8903,-94.0367,2.0,319.9200606,43.53431979,-99999.0,'11111222,11111222,99999999' 
TABS,ioos:station:wmo:42046:1,2004-08-03T09:00:00Z,27.8903,-94.0367,2.0,320.2996438,41.95519515,-99999.0,'11111222,11111222,99999999' 
TABS,ioos:station:wmo:42046:1,2004-08-03T09:30:00Z,27.8903,-94.0367,2.0,322.8337867,39.79253322,-99999.0,'11111222,11111222,99999999' 
TABS,ioos:station:wmo:42046:1,2004-08-03T10:00:00Z,27.8903,-94.0367,2.0,325.696191,36.23232397,-99999.0,'11111222,11111222,99999999' 
TABS,ioos:station:wmo:42046:1,2004-08-03T10:30:00Z,27.8903,-94.0367,2.0,325.1700867,32.19840058,-99999.0,'11111222,11111222,99999999' 
TABS,ioos:station:wmo:42046:1,2004-08-03T11:00:00Z,27.8903,-94.0367,2.0,331.2091257,25.55965767,-99999.0,'11111222,11111222,99999999' 
TABS,ioos:station:wmo:42046:1,2004-08-03T11:30:00Z,27.8903,-94.0367,2.0,2.728023215,18.07047592,-99999.0,'11111222,11111222,99999999' 
TABS,ioos:station:wmo:42046:1,2004-08-03T12:00:00Z,27.8903,-94.0367,2.0,9.384817525,15.7609454,-99999.0,'11111222,11111222,99999999' 
TABS,ioos:station:wmo:42046:1,2004-08-03T12:30:00Z,27.8903,-94.0367,2.0,19.22426249,11.48015679,-99999.0,'11111222,11111222,99999999' 
TABS,ioos:station:wmo:42046:1,2004-08-03T13:00:00Z,27.8903,-94.0367,2.0,24.69836993,9.884194454,-99999.0,'11133222,11111222,99999999' 
TABS,ioos:station:wmo:42046:1,2004-08-03T13:30:00Z,27.8903,-94.0367,2.0,38.18693121,8.702298547,-99999.0,'11133222,11111222,99999999' 
TABS,ioos:station:wmo:42046:1,2004-08-03T14:00:00Z,27.8903,-94.0367,2.0,47.80990679,6.923828421,-99999.0,'11133222,11111222,99999999' 
TABS,ioos:station:wmo:42046:1,2004-08-03T14:30:00Z,27.8903,-94.0367,2.0,51.25043019,2.987607739,-99999.0,'11133222,11111222,99999999' 
TABS,ioos:station:wmo:42046:1,2004-08-03T15:00:00Z,27.8903,-94.0367,2.0,67.72978416,2.269273011,-99999.0,'11133222,11111222,99999999' 
TABS,ioos:station:wmo:42046:1,2004-08-03T15:30:00Z,27.8903,-94.0367,2.0,94.63545259,0.371214224,-99999.0,'11133222,11111222,99999999' 
TABS,ioos:station:wmo:42046:1,2004-08-03T16:00:00Z,27.8903,-94.0367,2.0,217.9311057,3.562611402,-99999.0,'11133222,11111222,99999999' 
TABS,ioos:station:wmo:42046:1,2004-08-03T16:30:00Z,27.8903,-94.0367,2.0,238.9733679,4.714498913,-99999.0,'11133222,11111222,99999999' 
TABS,ioos:station:wmo:42046:1,2004-08-03T17:30:00Z,27.8903,-94.0367,2.0,242.5092492,6.36915222,-99999.0,'11133222,11111222,99999999' 
TABS,ioos:station:wmo:42046:1,2004-08-03T18:00:00Z,27.8903,-94.0367,2.0,257.5020756,7.948333159,-99999.0,'11133222,11111222,99999999' 
TABS,ioos:station:wmo:42046:1,2004-08-03T18:30:00Z,27.8903,-94.0367,2.0,261.7497043,11.49899561,-99999.0,'11111222,11111222,99999999' 
TABS,ioos:station:wmo:42046:1,2004-08-03T19:00:00Z,27.8903,-94.0367,2.0,267.9170187,11.55763384,-99999.0,'11111222,11111222,99999999' 
TABS,ioos:station:wmo:42046:1,2004-08-03T19:30:00Z,27.8903,-94.0367,2.0,266.5098291,16.09985404,-99999.0,'11111222,11111222,99999999' 
TABS,ioos:station:wmo:42046:1,2004-08-03T20:00:00Z,27.8903,-94.0367,2.0,273.7894794,21.33663985,-99999.0,'11111222,11111222,99999999' 
TABS,ioos:station:wmo:42046:1,2004-08-03T20:30:00Z,27.8903,-94.0367,2.0,277.8160998,27.57616543,-99999.0,'11111222,11111222,99999999' 
TABS,ioos:station:wmo:42046:1,2004-08-03T21:00:00Z,27.8903,-94.0367,2.0,275.6732828,25.69584597,-99999.0,'11111222,11111222,99999999' 
TABS,ioos:station:wmo:42046:1,2004-08-03T21:30:00Z,27.8903,-94.0367,2.0,270.8533498,31.57349838,-99999.0,'11111222,11111222,99999999' 
TABS,ioos:station:wmo:42046:1,2004-08-03T22:00:00Z,27.8903,-94.0367,2.0,277.5015354,31.17680227,-99999.0,'11111222,11111222,99999999' 
TABS,ioos:station:wmo:42046:1,2004-08-03T22:30:00Z,27.8903,-94.0367,2.0,279.3047672,31.60582541,-99999.0,'11111222,11111222,99999999' 
TABS,ioos:station:wmo:42046:1,2004-08-03T23:00:00Z,27.8903,-94.0367,2.0,276.1431992,34.2969226,-99999.0,'11111222,11111222,99999999' 
TABS,ioos:station:wmo:42046:1,2004-08-04T01:30:00Z,27.8903,-94.0367,2.0,278.9930593,43.12001507,-99999.0,'11111222,11111222,99999999' 
TABS,ioos:station:wmo:42046:1,2004-08-04T02:00:00Z,27.8903,-94.0367,2.0,281.2109186,46.34427365,-99999.0,'11111222,11111222,99999999' 
TABS,ioos:station:wmo:42046:1,2004-08-04T02:30:00Z,27.8903,-94.0367,2.0,282.1875882,46.75368328,-99999.0,'11111222,11111222,99999999' 
TABS,ioos:station:wmo:42046:1,2004-08-04T03:00:00Z,27.8903,-94.0367,2.0,288.9243731,47.79324325,-99999.0,'11111222,11111222,99999999' 
TABS,ioos:station:wmo:42046:1,2004-08-04T03:30:00Z,27.8903,-94.0367,2.0,293.2098804,48.21178383,-99999.0,'11111222,11111222,99999999' 
TABS,ioos:station:wmo:42046:1,2004-08-04T04:00:00Z,27.8903,-94.0367,2.0,298.6941419,52.13188851,-99999.0,'11111222,11111222,99999999' 
TABS,ioos:station:wmo:42046:1,2004-08-04T04:30:00Z,27.8903,-94.0367,2.0,300.8796379,51.18552334,-99999.0,'11111222,11111222,99999999' 
TABS,ioos:station:wmo:42046:1,2004-08-04T05:00:00Z,27.8903,-94.0367,2.0,303.4020112,51.24385329,-99999.0,'11111222,11111222,99999999' 
TABS,ioos:station:wmo:42046:1,2004-08-04T05:30:00Z,27.8903,-94.0367,2.0,307.4259228,47.63624041,-99999.0,'11111222,11111222,99999999' 
TABS,ioos:station:wmo:42046:1,2004-08-04T06:00:00Z,27.8903,-94.0367,2.0,311.5390699,49.19122686,-99999.0,'11111222,11111222,99999999' 
TABS,ioos:station:wmo:42046:1,2004-08-04T06:30:00Z,27.8903,-94.0367,2.0,313.0020568,49.07476948,-99999.0,'11111222,11111222,99999999' 
TABS,ioos:station:wmo:42046:1,2004-08-04T07:00:00Z,27.8903,-94.0367,2.0,317.0610802,44.24400185,-99999.0,'11111222,11111222,99999999' 
TABS,ioos:station:wmo:42046:1,2004-08-04T07:30:00Z,27.8903,-94.0367,2.0,327.7536765,36.00314708,-99999.0,'11111222,11111222,99999999' 
TABS,ioos:station:wmo:42046:1,2004-08-04T08:00:00Z,27.8903,-94.0367,2.0,339.3275263,29.88417809,-99999.0,'11111222,11111222,99999999' 
TABS,ioos:station:wmo:42046:1,2004-08-04T08:30:00Z,27.8903,-94.0367,2.0,351.9781075,27.01435544,-99999.0,'11111222,11111222,99999999' 
TABS,ioos:station:wmo:42046:1,2004-08-04T09:00:00Z,27.8903,-94.0367,2.0,357.9365953,25.8267497,-99999.0,'11111222,11111222,99999999' 
TABS,ioos:station:wmo:42046:1,2004-08-04T09:30:00Z,27.8903,-94.0367,2.0,0.248456936,23.08021664,-99999.0,'11111222,11111222,99999999' 
TABS,ioos:station:wmo:42046:1,2004-08-04T10:00:00Z,27.8903,-94.0367,2.0,3.212843146,20.34196893,-99999.0,'11111222,11111222,99999999' 
TABS,ioos:station:wmo:42046:1,2004-08-04T10:30:00Z,27.8903,-94.0367,2.0,7.355594176,18.19976373,-99999.0,'11111222,11111222,99999999' 
TABS,ioos:station:wmo:42046:1,2004-08-04T11:00:00Z,27.8903,-94.0367,2.0,12.23035769,14.77533418,-99999.0,'11111222,11111222,99999999' 
TABS,ioos:station:wmo:42046:1,2004-08-04T11:30:00Z,27.8903,-94.0367,2.0,14.92666703,14.98565981,-99999.0,'11111222,11111222,99999999' 
TABS,ioos:station:wmo:42046:1,2004-08-04T12:00:00Z,27.8903,-94.0367,2.0,21.74093867,14.03857543,-99999.0,'11111222,11111222,99999999' 
TABS,ioos:station:wmo:42046:1,2004-08-04T12:30:00Z,27.8903,-94.0367,2.0,22.76816606,11.0077291,-99999.0,'11111222,11111222,99999999' 
TABS,ioos:station:wmo:42046:1,2004-08-04T13:00:00Z,27.8903,-94.0367,2.0,24.67701592,10.17963654,-99999.0,'11111222,11111222,99999999' 
TABS,ioos:station:wmo:42046:1,2004-08-04T13:30:00Z,27.8903,-94.0367,2.0,57.3156829,9.481286832,-99999.0,'11133222,11111222,99999999' 
TABS,ioos:station:wmo:42046:1,2004-08-04T14:00:00Z,27.8903,-94.0367,2.0,81.84492946,12.97116803,-99999.0,'11111222,11111222,99999999' 
TABS,ioos:station:wmo:42046:1,2004-08-04T14:30:00Z,27.8903,-94.0367,2.0,87.73115315,12.62990103,-99999.0,'11111222,11111222,99999999' 
TABS,ioos:station:wmo:42046:1,2004-08-04T15:00:00Z,27.8903,-94.0367,2.0,88.59021947,12.19369099,-99999.0,'11111222,11111222,99999999' 
TABS,ioos:station:wmo:42046:1,2004-08-04T15:30:00Z,27.8903,-94.0367,2.0,106.871849,9.854161557,-99999.0,'11133222,11111222,99999999' 
TABS,ioos:station:wmo:42046:1,2004-08-04T16:00:00Z,27.8903,-94.0367,2.0,116.1946096,8.993653318,-99999.0,'11133222,11111222,99999999' 
TABS,ioos:station:wmo:42046:1,2004-08-04T16:30:00Z,27.8903,-94.0367,2.0,118.7272986,7.822863926,-99999.0,'11133222,11111222,99999999' 
TABS,ioos:station:wmo:42046:1,2004-08-04T17:00:00Z,27.8903,-94.0367,2.0,126.6175104,4.996048439,-99999.0,'11133222,11111222,99999999' 
TABS,ioos:station:wmo:42046:1,2004-08-04T17:30:00Z,27.8903,-94.0367,2.0,123.3058283,2.895600111,-99999.0,'11133222,11111222,99999999' 
TABS,ioos:station:wmo:42046:1,2004-08-04T18:00:00Z,27.8903,-94.0367,2.0,150.6310926,2.834254752,-99999.0,'11133222,11111222,99999999' 
TABS,ioos:station:wmo:42046:1,2004-08-04T18:30:00Z,27.8903,-94.0367,2.0,199.22357,3.674914965,-99999.0,'11133222,11111222,99999999' 
TABS,ioos:station:wmo:42046:1,2004-08-04T19:00:00Z,27.8903,-94.0367,2.0,228.8406244,4.011234224,-99999.0,'11133222,11111222,99999999' 
TABS,ioos:station:wmo:42046:1,2004-08-04T19:30:00Z,27.8903,-94.0367,2.0,230.2765577,6.227720289,-99999.0,'11133222,11111222,99999999' 
TABS,ioos:station:wmo:42046:1,2004-08-04T20:00:00Z,27.8903,-94.0367,2.0,250.8076818,9.095504384,-99999.0,'11133222,11111222,99999999' 
TABS,ioos:station:wmo:42046:1,2004-08-04T20:30:00Z,27.8903,-94.0367,2.0,257.5961143,11.40623075,-99999.0,'11111222,11111222,99999999' 
TABS,ioos:station:wmo:42046:1,2004-08-04T21:30:00Z,27.8903,-94.0367,2.0,275.5726057,14.41813095,-99999.0,'11111222,11111222,99999999' 
TABS,ioos:station:wmo:42046:1,2004-08-04T22:00:00Z,27.8903,-94.0367,2.0,281.4678502,15.69327244,-99999.0,'11111222,11111222,99999999' 
TABS,ioos:station:wmo:42046:1,2004-08-04T23:00:00Z,27.8903,-94.0367,2.0,289.4874153,18.2557443,-99999.0,'11111222,11111222,99999999' 
TABS,ioos:station:wmo:42046:1,2004-08-04T23:30:00Z,27.8903,-94.0367,2.0,287.7110564,19.26297225,-99999.0,'11111222,11111222,99999999' 
TABS,ioos:station:wmo:42046:1,2004-08-05T00:00:00Z,27.8903,-94.0367,2.0,292.54229,17.52924699,-99999.0,'11111222,11111222,99999999' 
TABS,ioos:station:wmo:42046:1,2004-08-05T00:30:00Z,27.8903,-94.0367,2.0,293.529288,17.30910165,-99999.0,'11111222,11111222,99999999' 
TABS,ioos:station:wmo:42046:1,2004-08-05T01:00:00Z,27.8903,-94.0367,2.0,299.1705794,17.80856255,-99999.0,'11111222,11111222,99999999' 
TABS,ioos:station:wmo:42046:1,2004-08-05T01:30:00Z,27.8903,-94.0367,2.0,305.0730218,18.62116001,-99999.0,'11111222,11111222,99999999' 
TABS,ioos:station:wmo:42046:1,2004-08-05T02:00:00Z,27.8903,-94.0367,2.0,306.3058206,19.08492599,-99999.0,'11111222,11111222,99999999' 
TABS,ioos:station:wmo:42046:1,2004-08-05T02:30:00Z,27.8903,-94.0367,2.0,310.2668884,22.27913822,-99999.0,'11111222,11111222,99999999' 